sat.trackr.live / text

‹ back to catalog

STARLINK-36875

NORAD 68300 · 2026-057G

PAYLOAD ACTIVE UNKNOWN

§ Identity

Operator
Country
US
Launch date
2026-03-20
Launch site
AFWTR
Launch vehicle
Mass (kg)
RCS (m²)

Purposes: comms

External: N2YO · Heavens-Above · Gunter

§ Orbital elements

Epoch: 2026-09-19T22:15:01.934208Z

Period
93.90 min
Inclination
97.2822°
Eccentricity
0.0002021
Mean motion
15.33481850 rev/d
Perigee alt
464.1 km
Apogee alt
466.8 km
Semi-major
6,843.6 km
B*
7.6999e-4
RAAN
28.3035°
Arg perigee
96.4207°
Mean anomaly
263.7266°
Rev number
2,842

§ Raw data

STARLINK-368751 68300U 26057G   26262.92710572  .00024895  00000+0  76999-3 0  99982 68300  97.2822  28.3035 0002021  96.4207 263.7266 15.33481850 28429

JSON: /api/v1/satellites/68300 · /tle

For live sub-satellite position, see the globe view (requires WebGL).

§ Visibility from observer

Set your observer location to see the next 7 days of passes ≥ 10°. The values pass through the URL so the page stays shareable.

No JS? Fill the form by hand. The geolocation button needs JavaScript.